RH
76 74 80 80 79 82 89 96 96 97 94 94 97 98 98 96 91 92 90 85 83 82 79 73 72 69 63 63 64 64 67 66 76 64 56 61 73 70 74 72 69 71 70
74 74 77 78 76 77 76 79 82 86 93 95 94 94 96 99 97 95 94 90 92 89 86 86 80 76 77 79 74 76 79 79 85 86 78 77 78 73 72 73 68 58 61
71 72 72 74 74 76 77 76 77 80 83 87 93 96 90 91 93 94 93 92 91 87 86 89 87 83 90 88 86 84 81 83 91 95 92 79 76 78 82 81 80 77 62
73 70 70 72 72 72 72 74 74 75 77 78 82 90 93 91 88 86 89 92 92 89 87 89 88 87 85 85 91 89 86 89 93 97 96 92 87 81 87 86 90 86 77
77 76 71 69 68 70 73 73 74 77 74 70 74 80 84 93 91 91 87 87 91 91 91 88 89 89 94 93 87 87 90 93 95 97 97 95 95 95 98 89 96 89 79
73 72 68 68 68 70 71 75 75 74 70 71 69 71 74 76 99 100 100 94 89 87 85 79 76 96 94 100 100 100 98 93 97 97 96 97 93 91 89 93 93 95 96
79 74 70 71 72 72 71 72 77 81 79 76 72 73 74 72 96 99 100 95 92 91 91 90 87 81 95 80 96 100 99 100 100 95 97 95 95 91 90 94 96 95 91
92 84 80 79 80 78 80 80 82 82 76 70 72 72 74 80 95 95 96 90 92 92 92 92 92 90 90 93 88 85 90 92 95 93 95 92 89 86 88 92 93 92 89
95 85 82 83 83 84 86 87 87 84 83 88 90 90 91 88 94 94 92 86 95 95 92 93 94 94 98 98 92 97 96 92 96 100 99 98 99 99 95 90 97 99 97
96 89 83 83 83 86 89 90 89 88 90 87 89 88 93 86 93 93 91 79 88 86 85 82 100 95 98 98 94 92 96 93 93 91 88 91 98 98 100 98 97 98 97
96 95 86 84 84 87 88 90 91 90 89 90 89 88 85 87 83 92 92 78 85 86 86 86 86 95 97 98 99 93 94 96 96 96 94 92 87 86 90 96 94 96 98
88 93 96 91 85 84 90 91 90 92 91 91 89 89 86 84 91 88 90 92 92 86 88 86 80 92 92 94 88 95 94 96 82 87 89 93 94 93 89 86 84 88 94
90 95 96 98 96 96 92 92 91 90 92 92 91 92 91 87 83 87 87 88 89 80 82 86 87 87 84 84 87 89 86 80 83 86 88 86 84 79 78 86 85 81 84
97 100 94 92 96 98 96 96 93 93 92 92 92 94 88 83 80 76 73 72 80 75 79 72 84 87 89 86 75 76 78 82 89 91 88 84 81 86 86 80 84 83 85
74 78 85 91 89 85 90 92 91 95 94 92 93 90 92 92 89 86 82 74 75 76 77 69 74 75 77 77 77 76 81 80 90 92 92 92 90 88 86 87 86 87 94
72 73 77 76 77 74 76 80 86 84 84 84 84 82 73 83 83 83 83 83 85 87 74 81 84 83 85 86 88 87 82 86 88 93 94 95 95 95 95 93 93 94 97
66 69 68 70 68 69 72 73 76 74 80 80 79 80 80 80 78 80 80 79 82 78 78 79 80 80 84 86 88 90 93 90 88 95 96 96 96 95 96 95 96 96 96
59 81 65 66 69 70 68 71 72 76 79 78 76 78 80 79 78 79 77 71 67 67 70 77 79 77 81 86 87 90 90 89 89 93 96 96 97 96 96 96 96 97 97
56 54 56 61 68 70 65 67 68 69 75 80 74 75 75 75 74 73 73 67 70 72 74 79 81 84 85 87 88 92 92 90 90 91 95 97 98 97 96 97 97 98 98
59 81 73 56 57 64 64 64 68 74 76 73 75 80 72 68 75 77 77 79 78 79 84 83 84 85 88 90 90 93 92 90 90 91 94 95 96 97 97 97 97 97 98
53 55 77 52 54 56 57 60 63 66 72 72 74 73 88 72 73 74 76 77 79 79 81 80 85 85 87 87 89 89 86 88 89 90 90 88 99 92 88 86 88 94 97
52 55 55 60 60 60 58 58 60 62 63 65 65 66 81 68 68 68 69 72 74 73 73 79 83 82 84 86 86 86 86 87 88 89 88 86 86 86 86 88 90 95 96
56 57 55 56 60 70 66 61 62 62 63 65 65 64 63 64 66 65 68 73 69 70 71 72 76 80 79 76 76 81 85 82 82 81 84 84 79 81 82 84 83 87 86
59 58 58 57 63 62 64 67 65 73 69 63 68 68 68 67 74 76 74 80 71 72 69 71 68 72 70 72 71 71 68 73 73 69 69 74 70 71 69 67 68 78 73
66 62 62 62 66 67 73 69 67 70 69 69 78 71 68 69 68 81 85 78 75 82 73 72 67 64 65 67 70 67 76 85 74 84 63 58 56 57 55 52 54 55 58
71 68 68 68 72 74 74 84 86 77 76 79 77 81 77 74 74 87 83 77 75 74 75 69 64 60 60 60 61 81 86 86 78 84 67 54 55 56 53 50 46 46 43
Wind_Speed
8 9 8 7 6 5 6 6 4 8 10 8 10 11 9 11 12 11 12 12 14 13 13 15 18 16 12 11 10 10 10 11 13 13 12 11 12 14 10 11 13 11 10
9 8 7 7 7 7 7 7 5 6 8 10 11 10 10 7 9 12 13 12 13 15 16 15 17 11 17 13 11 14 12 12 10 18 13 11 14 14 14 15 11 11 12
9 8 7 6 6 7 6 7 7 6 6 7 7 8 11 12 12 12 13 13 14 16 16 14 16 16 13 11 12 12 12 11 11 11 14 11 10 9 12 12 12 12 13
9 8 6 6 5 5 6 7 7 7 7 6 5 7 7 8 10 12 12 13 13 14 15 14 14 15 17 16 13 14 13 12 10 10 11 12 10 11 9 10 9 9 12
8 7 7 8 6 6 5 6 7 8 8 8 8 7 6 7 6 9 11 13 12 12 12 12 12 13 15 15 10 13 12 11 10 10 10 11 11 8 8 9 10 11 15
7 8 8 8 8 7 7 8 7 7 7 8 8 9 9 6 11 10 9 9 10 11 12 15 15 14 16 18 19 19 17 13 12 11 11 12 13 10 11 11 12 11 12
9 8 8 8 7 7 7 8 8 8 6 6 7 7 9 10 15 12 9 8 9 11 11 10 9 8 10 15 15 19 20 21 22 18 17 14 14 12 13 13 12 13 14
7 7 8 7 7 8 6 6 6 7 7 7 8 8 8 7 15 15 12 8 8 10 11 11 10 10 10 10 13 15 14 13 14 13 18 19 19 17 16 14 15 16 15
8 9 9 8 8 9 8 8 7 6 6 4 7 8 9 9 16 16 12 4 4 5 6 6 7 7 12 11 8 8 11 11 10 17 21 20 19 20 20 13 12 11 13
9 10 10 10 9 8 7 8 8 6 3 6 8 9 10 8 16 18 15 6 6 6 6 7 10 11 12 10 6 7 9 9 9 11 11 11 12 15 20 16 14 14 13
9 11 12 11 10 11 9 8 8 7 6 7 9 8 9 10 11 17 18 8 6 4 5 6 6 13 11 11 8 5 9 10 9 9 9 9 10 10 8 9 13 14 13
10 10 10 13 10 10 12 10 11 9 8 8 8 6 7 8 12 14 15 13 12 6 6 7 8 15 12 7 8 12 13 8 7 8 8 7 7 7 8 10 12 12 11
11 11 10 8 10 10 11 11 9 9 8 8 8 7 7 7 8 12 12 12 11 7 6 7 7 10 12 10 15 14 10 9 9 9 9 9 10 11 13 11 10 13 15
8 8 9 10 8 9 7 7 8 7 7 7 7 8 8 9 10 10 9 10 9 8 7 7 6 6 6 6 8 11 10 10 10 10 10 11 10 9 10 10 11 11 12
9 9 9 8 10 9 8 9 8 9 10 7 8 7 8 8 10 12 12 9 9 7 5 7 9 10 10 10 10 10 9 9 8 8 9 10 11 11 11 10 10 11 11
7 7 8 7 7 7 7 7 10 10 15 17 15 12 7 13 16 16 14 18 17 13 7 9 9 9 9 10 10 10 10 11 9 9 9 9 9 10 10 11 10 9 10
9 8 6 7 7 8 8 6 6 5 8 12 14 15 15 13 16 17 14 11 15 9 8 8 8 9 8 8 9 9 9 9 11 8 9 9 9 9 11 10 9 9 10
8 8 7 7 7 7 6 6 5 6 7 7 8 11 16 16 17 18 15 6 5 6 7 8 8 9 9 9 10 9 9 9 9 9 9 9 9 9 10 9 8 8 8
6 6 6 5 5 5 5 5 5 5 5 5 6 7 9 11 9 9 9 6 7 7 8 7 7 8 8 9 9 9 10 9 10 10 8 9 9 8 9 9 8 10 9
5 6 5 4 4 4 4 4 4 5 5 5 5 6 8 6 7 7 7 7 6 6 6 6 7 7 7 8 9 9 9 9 10 9 9 9 9 8 8 9 9 9 8
2 2 2 1 3 3 4 4 4 4 4 4 4 5 7 6 6 6 6 6 5 5 5 6 6 7 7 7 8 9 9 9 9 10 9 10 8 9 9 9 9 9 10
2 1 2 1 2 2 2 3 3 3 3 4 4 3 5 4 4 4 4 4 4 4 4 5 5 6 6 7 7 8 9 9 10 10 10 9 9 9 9 9 9 8 9
4 4 4 3 4 3 4 4 4 4 4 4 4 4 3 3 4 4 4 5 4 4 4 4 4 5 6 6 6 6 7 8 8 9 9 9 7 8 7 7 8 8 8
6 6 5 4 4 4 5 4 5 5 6 5 5 5 4 4 4 5 5 5 5 4 4 5 5 6 7 6 6 7 7 7 7 7 9 8 7 7 6 6 6 7 6
7 6 5 6 6 6 5 6 6 6 6 6 6 6 5 5 5 5 5 5 5 5 6 5 5 6 6 9 8 10 11 11 9 9 6 6 6 7 5 4 5 5 5
8 8 8 7 7 7 7 7 7 7 7 6 7 6 6 7 7 6 6 6 6 6 7 6 6 8 9 7 7 11 11 11 9 9 6 5 4 4 4 4 5 4 4
Wind_Direction
344 6 12 16 7 350 16 29 286 232 229 215 209 228 199 201 199 203 215 218 222 229 225 229 237 231 237 236 232 235 236 234 249 259 265 259 246 241 236 228 235 231 240
351 359 4 2 1 15 7 358 340 343 300 229 214 207 206 195 199 210 211 211 215 223 226 227 237 238 237 238 232 229 230 232 235 258 259 260 245 249 256 256 244 238 240
349 346 358 8 11 0 350 334 327 323 315 326 274 218 221 220 207 210 214 218 223 232 231 225 230 236 227 227 225 232 232 230 229 239 256 259 255 250 255 253 252 247 246
342 335 340 359 360 351 337 326 318 316 311 302 297 312 243 224 224 229 231 228 225 230 237 234 233 235 235 238 231 230 234 239 236 237 243 254 250 248 238 250 254 232 252
340 331 339 345 348 353 342 327 322 314 306 302 305 306 321 277 243 235 235 242 238 237 236 237 235 239 242 243 244 245 242 239 238 243 246 246 246 240 226 241 243 253 252
342 341 343 348 344 347 344 332 322 311 303 300 303 307 305 297 322 275 242 258 266 251 252 252 249 233 238 231 234 244 249 249 244 246 251 245 243 242 244 236 241 248 265
345 347 349 341 345 338 329 322 321 317 306 294 295 294 292 293 5 347 319 270 265 263 265 264 262 263 243 253 241 238 245 241 240 255 259 249 255 248 250 255 241 244 250
357 353 344 344 344 337 329 330 323 314 314 303 293 284 276 42 0 349 326 273 254 256 256 259 263 268 263 257 258 263 252 239 235 237 245 254 254 255 254 254 258 258 257
358 18 17 7 7 359 353 343 336 319 313 3 40 44 80 44 6 358 338 322 311 302 310 315 334 314 33 1 330 303 291 282 263 241 248 252 245 246 247 264 262 261 265
7 23 24 15 16 4 7 2 345 327 9 81 77 67 53 45 18 9 5 19 25 355 5 358 68 20 340 329 329 311 298 298 303 308 299 283 259 258 247 245 257 260 259
20 29 36 27 34 21 22 23 26 25 55 72 76 62 54 40 24 13 14 32 17 354 359 350 5 357 334 344 355 359 315 308 291 281 281 280 281 277 262 238 241 244 251
33 37 40 36 37 34 31 28 28 35 34 39 50 54 40 28 23 12 18 21 11 12 16 5 0 339 345 347 349 344 332 306 319 309 302 301 304 308 306 300 284 263 256
31 26 31 40 37 33 40 35 33 33 31 38 34 29 27 16 9 7 11 17 21 31 15 14 350 343 354 3 358 350 337 350 338 326 321 315 315 309 309 304 294 287 283
42 36 35 40 56 53 49 45 43 34 33 32 33 24 16 17 11 7 7 11 21 26 11 23 11 7 20 354 3 9 1 352 340 336 325 318 311 309 305 309 303 301 293
50 47 47 47 46 53 62 50 50 43 39 32 26 32 17 18 13 5 14 14 10 9 346 26 25 17 11 6 1 357 354 352 343 330 321 321 322 318 312 308 306 303 293
58 49 42 45 41 43 44 54 66 50 43 40 34 32 33 29 16 16 18 24 14 356 36 32 25 17 10 359 354 350 350 345 338 328 324 319 316 317 316 315 302 304 300
45 43 49 48 49 43 44 38 34 58 79 46 29 33 32 28 24 22 20 16 23 11 36 26 20 12 1 356 351 346 338 335 330 330 325 323 321 317 319 317 317 313 312
48 42 40 40 39 37 36 36 34 29 24 22 29 22 26 22 21 20 10 359 30 36 34 23 15 7 359 357 353 347 339 334 336 335 330 329 327 324 323 326 327 325 324
44 45 42 46 42 31 34 35 32 32 31 21 6 15 21 18 10 22 13 30 24 25 20 17 4 359 354 349 347 341 340 338 337 336 335 334 335 335 336 337 340 349 353
60 44 33 36 32 29 27 25 26 28 16 13 9 9 360 359 11 10 15 17 15 10 4 357 356 354 353 349 344 341 342 342 342 341 338 338 344 344 351 352 2 5 11
61 74 23 5 31 22 15 12 7 7 2 352 352 4 350 343 358 360 1 1 355 349 346 346 345 346 344 347 348 345 346 347 344 344 340 346 343 356 3 11 24 28 30
240 244 257 298 325 307 320 318 325 321 317 315 328 321 328 315 329 334 335 332 326 327 331 329 332 335 339 341 343 345 341 342 346 346 343 347 352 1 9 20 27 30 39
233 239 239 240 245 244 249 259 263 266 277 281 290 297 305 306 305 302 307 313 314 318 323 318 319 329 335 335 340 340 337 339 334 333 335 340 352 357 1 10 18 30 38
231 235 242 256 254 256 255 261 269 262 274 279 277 277 279 281 283 285 290 295 302 307 313 309 310 321 331 336 336 338 336 335 325 330 338 337 346 357 6 9 22 28 41
228 237 236 238 240 240 245 247 252 257 260 261 263 264 270 276 277 279 283 283 288 295 298 297 300 314 318 322 328 334 337 331 332 327 331 342 347 352 11 21 13 27 42
220 225 232 235 236 238 241 244 248 250 253 253 256 260 264 267 268 271 272 272 274 277 283 283 287 295 304 306 325 331 329 331 332 336 326 336 355 356 345 8 25 23 20